Weather History for KANB - March, 2014

Change the Weather History Date:

Thursday, March 13, 2014

  Actual Average Record
Temperature  
Mean Temperature 44 °F 54 °F  
Max Temperature 55 °F 66 °F 87 °F (1967)
Min Temperature 33 °F 42 °F 8 °F (1993)
Degree Days  
Heating Degree Days 21    
Month to date heating degree days  
Since 1 July heating degree days  
Moisture  
Dew Point 24 °F    
Average Humidity 51    
Maximum Humidity 82    
Minimum Humidity 25    
Precipitation  
Precipitation 0.00 in 0.16 in 2.20 in (1950)
Month to date precipitation 2.22  
Year to date precipitation 11.82  
Sea Level Pressure  
Sea Level Pressure 30.21 in    
Wind  
Wind Speed 8 mph (NW)    
Max Wind Speed 16 mph    
Max Gust Speed 24 mph    
Visibility 10 miles    
Events      
T = Trace of Precipitation, MM = Missing Value Source: NWS Daily Summary

Daily Weather History Graph

Daily Weather History Graph

Search for Another Location

Airport or City:

Trip Planner

Search our weather history database for the weather conditions in past years. The results will help you decide how hot, cold, wet, or windy it might be!

Date:

Astronomy

Mar. 13, 2014 Rise Set
Actual Time 6:56 AM CDT 6:49 PM CDT
Civil Twilight 6:31 AM CDT 7:14 PM CDT
Nautical Twilight 6:02 AM CDT 7:43 PM CDT
Astronomical Twilight 5:33 AM CDT 8:12 PM CDT
Moon 4:20 PM CDT (3/13) 4:56 AM CDT (3/13)
Length of Visible Light 12h 42m
Length of Day
11h 53m
Waxing Gibbous, 91% of the Moon is Illuminated
Mar 13
Waxing Gibbous
Mar 16
Full
Mar 23
Last Quarter
Mar 30
New
Apr 7
First Quarter

Hourly Weather History & Observations

Time (CDT) Temp. Windchill Dew Point Humidity Pressure Visibility Wind Dir Wind Speed Gust Speed Precip Events Conditions
12:53 AM 39.9 °F 33.9 °F 23.0 °F 51% 30.10 in 10.0 mi WNW 9.2 mph 17.3 mph N/A   Clear
1:53 AM 37.9 °F 33.5 °F 23.0 °F 55% 30.11 in 10.0 mi West 5.8 mph - N/A   Clear
2:53 AM 37.0 °F 31.6 °F 24.1 °F 59% 30.11 in 10.0 mi West 6.9 mph - N/A   Clear
3:53 AM 33.1 °F 26.1 °F 26.1 °F 75% 30.11 in 10.0 mi WSW 8.1 mph - N/A   Clear
4:53 AM 35.1 °F 30.1 °F 25.0 °F 67% 30.13 in 10.0 mi West 5.8 mph - N/A   Clear
5:53 AM 35.1 °F 30.1 °F 25.0 °F 67% 30.16 in 10.0 mi WNW 5.8 mph - N/A   Clear
6:53 AM 36.0 °F 28.5 °F 23.0 °F 59% 30.19 in 10.0 mi North 10.4 mph 17.3 mph N/A   Clear
7:53 AM 37.0 °F 30.4 °F 23.0 °F 57% 30.22 in 10.0 mi NNW 9.2 mph - N/A   Clear
8:53 AM 39.9 °F 34.5 °F 23.0 °F 51% 30.25 in 10.0 mi NNW 8.1 mph 18.4 mph N/A   Clear
9:53 AM 42.1 °F 34.5 °F 21.9 °F 45% 30.26 in 10.0 mi North 15.0 mph 21.9 mph N/A   Clear
10:53 AM 45.0 °F 37.9 °F 21.9 °F 40% 30.26 in 10.0 mi NW 16.1 mph 23.0 mph N/A   Clear
11:53 AM 48.9 °F - 23.0 °F 36% 30.26 in 10.0 mi North 11.5 mph 18.4 mph N/A   Clear
12:53 PM 51.1 °F - 21.9 °F 32% 30.24 in 10.0 mi North 16.1 mph 24.2 mph N/A   Clear
1:53 PM 52.0 °F - 24.1 °F 34% 30.23 in 10.0 mi West 9.2 mph 19.6 mph N/A   Clear
2:53 PM 53.1 °F - 19.9 °F 27% 30.22 in 10.0 mi NNW 13.8 mph 19.6 mph N/A   Clear
3:53 PM 55.9 °F - 21.0 °F 26% 30.22 in 10.0 mi NNE 10.4 mph - N/A   Clear
4:53 PM 54.0 °F - 21.9 °F 29% 30.22 in 10.0 mi West 11.5 mph - N/A   Clear
5:53 PM 54.0 °F - 19.0 °F 25% 30.23 in 10.0 mi NNW 9.2 mph - N/A   Clear
6:53 PM 52.0 °F - 21.0 °F 30% 30.25 in 10.0 mi North 5.8 mph - N/A   Clear
7:53 PM 43.0 °F - 30.0 °F 60% 30.26 in 10.0 mi Calm Calm - N/A   Clear
8:53 PM 41.0 °F - 32.0 °F 70% 30.27 in 10.0 mi Calm Calm - N/A   Clear
9:53 PM 39.9 °F - 30.9 °F 70% 30.28 in 10.0 mi Calm Calm - N/A   Clear
10:53 PM 37.0 °F - 30.9 °F 79% 30.28 in 10.0 mi Calm Calm - N/A   Clear
11:53 PM 36.0 °F 33.3 °F 30.9 °F 82% 30.28 in 10.0 mi East 3.5 mph - N/A   Clear